Regional Weather Roundup
Issued by NWS

Home | Current Version | Previous Version | Text Only | Print | Product List | Glossary On
Versions: 1 2 3 4 5 6 7 8 9 10 11 12 13 14 15 16 17 18 19 20 21 22 23 24 25 26 27 28 29 30 31 32 33 34 35 36 37 38 39 40 41 42 43 44 45 46 47 48 49 50
000
ASUS44 KJAN 291910
RWRMS

MISSISSIPPI HOURLY WEATHER ROUNDUP
NATIONAL WEATHER SERVICE JACKSON MS
200 PM CDT SAT APR 29 2017

NOTE: "FAIR: INDICATES FEW OR NO CLOUDS BELOW 12,000 FEET WITH NO
SIGNIFICANT WEATHER AND/OR OBSTRUCTIONS TO VISIBILITY.

MSZ001>002-007>008-010>013-018>021-025>028-034>036-292000-
NORTHWEST MISSISSIPPI

CITY           SKY/WX    TMP DP  RH WIND       PRES   REMARKS
BATESVILLE     FAIR      86  68  54 S17G29    29.86F
CLARKSDALE     MOSUNNY   88  72  58 S29G36    29.82F HX  94
CLEVELAND      MOCLDY    87  70  57 S26G38    29.81F HX  92
GREENWOOD      PTSUNNY   87  72  60 S23G31    29.85F HX  93
GREENVILLE     SUNNY     88  69  53 S22G41    29.78F HX  92
OLIVE BRANCH   PTSUNNY  N/A N/A N/A S21G32    29.85F
OXFORD         FAIR      84  66  54 SE18G33   29.90F
TUNICA         PTCLDY    86  70  58 S23G33    29.83S HX  90
WINONA         MOCLDY    85  71  62 S17G25    29.89F
$$

MSZ003>006-009-014>017-022>024-029>033-037>039-292000-
NORTHEAST MISSISSIPPI

CITY           SKY/WX    TMP DP  RH WIND       PRES   REMARKS
COLUMBUS AFB   NOT AVBL
CORINTH        MOCLDY    84  68  58 S21G31    29.93F
GOLDN TRIANGLE PTSUNNY   82  68  61 S16       29.92F
STARKVILLE     FAIR      84  72  65 S13G23    29.96F
TUPELO         PTSUNNY   84  69  60 SE18G26   29.94F
$$

MSZ040-058-292000-
CENTRAL MISSISSIPPI

CITY           SKY/WX    TMP DP  RH WIND       PRES   REMARKS
JACKSON INTL   PTSUNNY   86  70  58 SE22G33   29.88F HX  90
JACKSON HAWKNS MOSUNNY   87  70  56 SE20G30   29.87F HX  92
MADISON        FAIR      84  70  61 SE10G20   29.87F
MERIDIAN KEY   CLOUDY    87  70  56 S18G25    29.96F HX  92
MERIDIAN NAS   PTSUNNY   85  66  53 SE15G23   29.98F
RAYMOND        FAIR      88  72  58 SE17G28   29.86F HAZE    HX  94
VICKSBURG VKS  PTCLDY    90  70  51 S20G30    29.80F HX  95
$$

MSZ059>079-292000-
SOUTH MISSISSIPPI

CITY           SKY/WX    TMP DP  RH WIND       PRES   REMARKS
HATTIESBURG    PTSUNNY   86  70  58 S14       29.95F HX  90
LAUREL         MOCLDY    85  70  60 SE12G21   29.95F HX  90
MCCOMB         CLOUDY    85  71  63 SE20G30   29.88F HX  90
NATCHEZ        CLOUDY    87  72  60 S18G32    29.82  HX  93
PINE BELT      PTSUNNY   84  70  61 S21       29.96F
$$

MSZ080>082-292000-
COASTAL MISSISSIPPI

CITY           SKY/WX    TMP DP  RH WIND       PRES   REMARKS
BILOXI         CLOUDY    83  75  77 SE15G21   29.97F
PASCAGOULA     CLOUDY    81  72  74 SE22      29.99F
GULFPORT       CLOUDY    82  74  76 SE23G32   29.97F
$$

LAZ007>009-015>016-023>026-292000-
NORTHEAST LOUISIANA

CITY           SKY/WX    TMP DP  RH WIND       PRES   REMARKS
BASTROP        MOCLDY    84  71  65 S9G24     29.79S HX  90
TALLULAH/VBURG LGT RAIN  87  70  56 S21G33    29.82F HX  92
VIDALIA        MOCLDY    89  71  56 S16G23    29.81R HX  94
$$



USA.gov is the U.S. government's official web portal to all federal, state and local government web resources and services.